Location: Unspecified
(43.9500°N, 64.7900°W)
Time: 09:14:49
(UTC-03:00)

Tiangong 2 - Visible Passes

Search period start: 22 March 2019 00:00
Search period end: 01 April 2019 00:00
Orbit: 379 x 390 km, 42.8° (Epoch: 22 March)

Date Brightness Start Highest point End Pass type
(mag) Time Alt. Az. Time Alt. Az. Time Alt. Az.
22 Mar 2.7 06:19:40 17° SW 06:20:40 20° SSW 06:23:03 10° SSE visible
23 Mar 3.4 05:23:17 16° SSE 05:23:17 16° SSE 05:24:10 10° SE visible
24 Mar 3.6 05:59:20 11° S 05:59:20 11° S 05:59:35 10° S visible
29 Mar 3.5 20:47:50 10° SSE 20:48:13 11° SSE 20:48:13 11° SSE visible
30 Mar 2.9 21:22:57 10° SW 21:24:25 21° SSW 21:24:25 21° SSW visible
31 Mar 2.8 20:24:03 10° SSW 20:26:19 18° SSE 20:28:10 12° ESE visible
31 Mar 3.6 21:59:36 10° WSW 22:00:25 16° WSW 22:00:25 16° WSW visible
